Simultaneous Nadir Overpasses (SNOs) Predictions

Prediction of SNOs between GOES-14 and AQUA Satellite Orbit:

Table of predicted SNOs for the next 14.0 days since TLE Epoch: 2/19/2022
Index Date Time (GOES-14) GOES-14 Lat,Lon AQUA Lat,Lon Distance(km) Time Diff (sec)
1 02/19/2022 20:39:01 -0.05,-104.37 -0.20,-105.21 95.29 80
2 02/21/2022 20:24:05 -0.05,-104.37 0.39,-102.22 243.67 80
3 02/22/2022 08:45:21 0.05,-104.60 0.63,-107.39 316.40 80
4 02/24/2022 08:35:45 0.05,-104.61 0.03,-104.40 22.59 80
5 02/26/2022 08:23:30 0.06,-104.60 -0.64,-101.43 361.32 80
6 02/26/2022 20:44:52 -0.06,-104.38 -0.51,-106.60 252.33 80
7 02/28/2022 20:29:56 -0.06,-104.38 0.11,-103.62 86.20 80
8 03/01/2022 08:51:11 0.06,-104.58 0.96,-108.78 477.01 80
9 03/02/2022 20:17:40 -0.06,-104.38 0.74,-100.64 425.36 80
10 03/03/2022 08:38:55 0.06,-104.59 0.32,-105.80 137.25 80
